This demonstration page uses our WeatherBlox Daily Observations layout. Learn more.

Left ArrowRight Arrow

47.50024, -111.30081

Hourly Observations for May 10, 2021

Temp ( °F °C ) Dew Point ( °F °C ) Humidity (%) Winds ( mph kmh ) Pressure ( in mb ) Visibility ( mi km ) Precip ( " mm )
12:02 am 00:02 Cloudy 39 3.9 35 1.7 86 86 N 3 6 30.25 1025 10 16 0.00 0.00
12:18 am 00:18 Cloudy 38 3.3 35 1.7 89 89 N 3 6 30.26 1025 10 16 0.00 0.00
12:28 am 00:28 Cloudy 38 3.3 35 1.7 89 89 Calm 30.26 1025 10 16 0.00 0.00
12:53 am 00:53 Cloudy 38 3.3 36 2.2 93 93 NNW 3 6 30.28 1025 10 16 0.00 0.00
1:53 am 01:53 Cloudy 38 3.3 35 1.7 89 89 NNW 5 7 30.28 1025 10 16 0.00 0.00
2:41 am 02:41 Cloudy 37 2.8 35 1.7 93 93 W 5 7 30.26 1025 10 16 0.00 0.00
2:53 am 02:53 Cloudy 37 2.8 35 1.7 93 93 W 5 7 30.27 1025 10 16 0.00 0.00
3:53 am 03:53 Cloudy 35 1.7 34 1.1 96 96 WSW 5 7 30.28 1025 10 16 0.00 0.00
4:23 am 04:23 Cloudy 36 2.2 35 1.7 97 97 Calm 30.27 1025 10 16 0.00 0.00
4:53 am 04:53 Cloudy 37 2.8 35 1.7 93 93 SW 5 7 30.28 1025 10 16 0.00 0.00
5:53 am 05:53 Cloudy 36 2.2 34 1.1 93 93 WNW 6 9 30.27 1025 10 16 0.00 0.00
6:53 am 06:53 Mostly Cloudy 36 2.2 35 1.7 97 97 SSW 3 6 30.27 1025 10 16 0.00 0.00
7:16 am 07:16 Cloudy 37 2.8 35 1.7 93 93 SSW 3 6 30.28 1025 10 16 0.00 0.00
7:53 am 07:53 Cloudy 38 3.3 35 1.7 89 89 SW 6 9 30.29 1026 10 16 0.00 0.00
8:53 am 08:53 Cloudy 39 3.9 33 0.6 79 79 SSW 5 7 30.29 1026 10 16 0.00 0.00
9:53 am 09:53 Cloudy 41 5 33 0.6 73 73 Calm 30.29 1026 10 16 0.00 0.00
10:53 am 10:53 Cloudy 43 6.1 32 0 65 65 Calm 30.29 1026 10 16 0.00 0.00
11:37 am 11:37 Mostly Cloudy 45 7.2 33 0.6 63 63 S 5 7 30.23 1024 10 16 0.00 0.00
11:53 am 11:53 Mostly Cloudy 45 7.2 33 0.6 63 63 SW 7 11 30.29 1026 10 16 0.00 0.00
12:03 pm 12:03 Partly Cloudy 46 7.8 32 0 58 58 Calm 30.22 1023 10 16 0.00 0.00
12:53 pm 12:53 Sunny 47 8.3 32 0 56 56 Calm 30.27 1025 10 16 0.00 0.00
1:53 pm 13:53 Partly Cloudy 50 10 30 -1.1 46 46 Calm 30.25 1024 10 16 0.00 0.00
2:53 pm 14:53 Cloudy 49 9.4 30 -1.1 48 48 Calm 30.25 1024 10 16 0.00 0.00
3:53 pm 15:53 Cloudy 50 10 31 -0.6 48 48 Calm 30.24 1024 10 16 0.00 0.00
4:53 pm 16:53 Mostly Cloudy 50 10 31 -0.6 48 48 E 3 6 30.22 1023 10 16 0.00 0.00
5:53 pm 17:53 Mostly Cloudy 51 10.6 31 -0.6 46 46 ESE 7 11 30.22 1023 10 16 0.00 0.00
6:53 pm 18:53 Cloudy 51 10.6 31 -0.6 46 46 E 9 15 30.21 1023 10 16 0.00 0.00
7:53 pm 19:53 Partly Cloudy 51 10.6 31 -0.6 46 46 E 7 11 30.20 1023 10 16 0.00 0.00
8:53 pm 20:53 Partly Cloudy 47 8.3 33 0.6 59 59 ESE 8 13 30.22 1024 10 16 0.00 0.00
9:53 pm 21:53 Partly Cloudy 43 6.1 33 0.6 68 68 E 7 11 30.24 1024 10 16 0.00 0.00
10:53 pm 22:53 Clear 40 4.4 32 0 73 73 E 7 11 30.24 1024 10 16 0.00 0.00
11:53 pm 23:53 Clear 38 3.3 33 0.6 83 83 SSE 7 11 30.23 1024 10 16 0.00 0.00

Powered by AerisWeather